Home > Weather > Banjul > Past weeks

Flag for Gambia Weather for the Past 2 Weeks in Banjul, Gambia

Now
70 °F

Clear.


Feels Like: 70 °F
Forecast: N/A
Wind: 14 mph from West

Location: Banjul / Yundum

Current Time: May 6, 2016 at 10:55:38 PM

Latest Report: May 6, 2016 at 10:00 PM


Visibility: 10 mi

Pressure: 29.89 "Hg

Humidity: 78%

Dew Point: 63 °F

Location of BanjulLocation

Historic Weather in Banjul — Graph

°F

Banjul Temperature Yesterday

Maximum temperature yesterday: 90 °F (at 2:00 PM)
Minimum temperature yesterday: 68 °F (at 7:00 AM)
Average temperature yesterday: 76 °F

High & Low Weather Summary for the Past Weeks

 TemperatureHumidityPressure
High104 °F (Apr 22, 3:00 PM)94% (Apr 25, 5:00 AM)32.78 "Hg (Apr 25, 5:00 AM)
Low66 °F (Apr 28, 6:00 AM)20% (Apr 28, 3:00 PM)29.71 "Hg (Apr 22, 5:00 PM)
Average76 °F71%29.84 "Hg
* Reported Apr 21 9:00 PM — May 6 9:00 PM, Banjul, Weather by CustomWeather, © 2016

Note: Actual official high and low records may vary slightly from our data, if they occured in-between our weather recording intervals... More about our weather records

Advertising

Banjul Weather History for the Previous 24 Hours

Scroll right to see more
 ConditionsComfort  
Time TempWeatherWind HumidityBarometerVisibility
9:00 PM
Fri, May 6
70 °FClear.10 mph78%29.89 "Hg10 mi
8:00 PM70 °FClear.9 mph88%29.86 "Hg10 mi
7:00 PM73 °FSunny.8 mph74%29.86 "Hg10 mi
6:00 PM77 °FSunny.10 mph61%29.86 "Hg10 mi
5:00 PM79 °FSunny.16 mph58%29.86 "Hg10 mi
4:00 PM81 °FSunny.13 mph54%29.86 "Hg10 mi
3:00 PM82 °FSunny.14 mph51%29.89 "Hg10 mi
2:00 PM82 °FSunny.7 mph51%29.89 "Hg10 mi
1:00 PM82 °FSunny.8 mph55%29.92 "Hg10 mi
12:00 PM84 °FSunny.9 mph51%29.92 "Hg10 mi
11:00 AM81 °FSunny.7 mph51%29.95 "Hg10 mi
10:00 AM75 °FSunny.3 mph65%29.95 "Hg10 mi
9:00 AM72 °FSunny.2 mph78%29.95 "Hg10 mi
8:00 AM68 °FSunny.3 mph88%29.89 "Hg10 mi
7:00 AM68 °FSunny.3 mph88%29.89 "Hg10 mi
5:00 AM68 °FClear.7 mph83%29.86 "Hg10 mi
4:00 AM68 °FClear.12 mph83%29.86 "Hg10 mi
3:00 AM68 °FClear.9 mph83%29.86 "Hg10 mi
2:00 AM68 °FClear.10 mph83%29.86 "Hg10 mi
1:00 AM68 °FClear.9 mph83%29.89 "Hg10 mi
12:00 AM70 °FClear.12 mph78%29.92 "Hg10 mi
11:00 PM
Thu, May 5
70 °FClear.14 mph88%29.92 "Hg10 mi
10:00 PM72 °FClear.12 mph73%29.92 "Hg10 mi
Weather by CustomWeather, © 2016

See weather overviewHow to use our weather pages